Voltar ao catálogo

PRSC-EO1

AtivoCiênciaSSO
NORAD 62726·PAYLOAD·🇨🇳 China
Este nome de satélite ainda não foi confirmado por fontes oficiais.

Lançado Jan 17, 2025 de Jiuquan Satellite Launch Center

Loading…

Próximas Passagens (próximas 24 horas)

TLE

AtualizadoSource: Space-Track

Época: Sep 14, 2026, 04:16 UTC

1 62726U 25012B   26257.17790806  .00003394  00000-0  15205-3 0  9998
2 62726  97.4159 328.9972 0007911 334.0827  26.0011 15.21902957 91781

Acompanhe PRSC-EO1 em tempo real com AllMySat

Download on the App Store